Вернуться в каталог

USA 391

АктивенВоенныеVLEO
NORAD 60174·PAYLOAD·🇺🇸 United States

Запущен Jun 29, 2024 с Vandenberg Space Force Base

Loading…

Ближайшие Пролёты (ближайшие 24 часа)

TLE

УстаревшееSource: Mike McCants

Эпоха: Aug 15, 2024, 20:31 UTC

1 60174U 24121S   24228.85535693 0.00000000  00000-0  00000-0 0    03
2 60174  70.0000 272.2608 0001000 329.4395  30.5604 14.96715000    01

Отслеживайте USA 391 в реальном времени с AllMySat

Download on the App Store